Flag for Germany Weather past 2 weeks in Schwerin, Mecklenburg-Western Pomerania, Germany

Now
48 °F

Passing clouds.


Feels Like: 46 °F
Forecast: 48 / 69 °F
Wind: 5 mph from Southwest

Location: Schwerin

Current Time: Aug 21, 2014 at 3:09:42 AM

Latest Report: Aug 21, 2014 at 2:00 AM


Visibility: 19 mi

Pressure: 29.96 "Hg

Humidity: 91%

Dew point: 46 °F

Location of SchwerinLocation

Historic Weather in Schwerin — Graph

°F

Schwerin temperature yesterday

Maximum temperature yesterday: 60 °F (at 4:00 PM)
Minimum temperature yesterday: 51 °F (at 4:00 AM)
Average temperature yesterday: 55 °F

Past Weeks' High & Low Weather Summary

 TemperatureHumidityPressure
High77 °F (Aug 8, 3:00 PM)97% (Aug 8, 6:00 AM)30.06 "Hg (Aug 8, 6:00 AM)
Low49 °F (Aug 21, 1:00 AM)43% (Aug 6, 6:00 PM)29.50 "Hg (Aug 18, 12:00 PM)
Average62 °F74%29.81 "Hg
* Reported Aug 6 1:00 AM — Aug 21 1:00 AM, Schwerin, Weather by CustomWeather, © 2014

Note: Actual official high and low records may vary slightly from our data, if they occured in-between our weather recording intervals... More about our weather records

Advertising

Schwerin weather history for previous 24 hours

 ConditionsComfort  
Time TempWeatherWind HumidityBarometerVisibility
1:00 AM
Aug 21
49 °FPassing clouds.5 mph90%29.95 "Hg25 mi
12:00 AM50 °FPassing clouds.3 mph88%29.95 "Hg22 mi
10:00 PM
Aug 20
54 °FLight rain. Passing clouds.6 mph80%29.94 "Hg28 mi
9:00 PM55 °FPassing clouds.5 mph77%29.93 "Hg37 mi
8:00 PM57 °FPartly sunny.6 mph73%29.92 "Hg25 mi
7:00 PM59 °FScattered clouds.7 mph67%29.91 "Hg11 mi
6:00 PM57 °FOvercast.8 mph71%29.92 "Hg28 mi
4:00 PM60 °FOvercast.8 mph68%29.90 "Hg16 mi
3:00 PM60 °FOvercast.10 mph66%29.89 "Hg15 mi
2:00 PM58 °FOvercast.9 mph68%29.88 "Hg28 mi
1:00 PM59 °FPartly sunny.9 mph66%29.87 "Hg19 mi
12:00 PM60 °FOvercast.9 mph65%29.86 "Hg14 mi
11:00 AM58 °FPartly sunny.9 mph69%29.85 "Hg15 mi
10:00 AM56 °FPartly sunny.9 mph75%29.84 "Hg22 mi
9:00 AM53 °FOvercast.9 mph83%29.83 "Hg12 mi
8:00 AM52 °FOvercast.8 mph85%29.82 "Hg10 mi
7:00 AM51 °FOvercast.8 mph88%29.81 "Hg12 mi
6:00 AM51 °FOvercast.7 mph88%29.80 "Hg14 mi
4:00 AM51 °FOvercast.8 mph88%29.78 "Hg12 mi
3:00 AM51 °FOvercast.8 mph85%29.77 "Hg18 mi
Weather by CustomWeather, © 2014

See weather overviewHow to use our weather pages